Satellite-Ground Cal/Val Region Overpasses Predictions

Prediction of Satellite NPP Overpassing Cal/Val Region: PacNW

Region Location: (Latitude: 10.00, Longitude: 139.50) to (Latitude: 22.70, Longitude: 165.60).

Table of predicted overpasses for the next 14.0 days since TLE Epoch: 1/18/2020
Interval Starting Time Starting Location Ending Time Ending Location
1 01/18/2020 15:42:19 ( 22.66, 149.26) 01/18/2020 15:45:54 ( 10.04, 146.26)
2 01/19/2020 02:51:24 ( 10.05, 156.79) 01/19/2020 02:54:59 ( 22.67, 153.79)
3 01/19/2020 15:23:17 ( 22.65, 154.02) 01/19/2020 15:26:52 ( 10.03, 151.02)
4 01/20/2020 02:32:21 ( 10.06, 161.55) 01/20/2020 02:35:56 ( 22.68, 158.54)
5 01/20/2020 15:04:13 ( 22.70, 158.79) 01/20/2020 15:07:49 ( 10.02, 155.78)
6 01/21/2020 02:14:12 ( 13.19, 165.59) 01/21/2020 02:16:54 ( 22.70, 163.30)
7 01/21/2020 03:54:48 ( 10.02, 140.94) 01/21/2020 03:56:33 ( 16.19, 139.51)
8 01/21/2020 14:45:11 ( 22.68, 163.55) 01/21/2020 14:48:47 ( 10.00, 160.53)
9 01/22/2020 03:35:45 ( 10.04, 145.70) 01/22/2020 03:39:20 ( 22.66, 142.70)
10 01/22/2020 14:29:22 ( 11.28, 165.59) 01/22/2020 14:29:43 ( 10.05, 165.30)
11 01/22/2020 16:07:38 ( 22.66, 142.93) 01/22/2020 16:11:13 ( 10.04, 139.93)
12 01/23/2020 03:16:43 ( 10.05, 150.46) 01/23/2020 03:20:18 ( 22.67, 147.45)
13 01/23/2020 15:48:36 ( 22.65, 147.69) 01/23/2020 15:52:11 ( 10.03, 144.69)
14 01/24/2020 02:57:40 ( 10.01, 155.23) 01/24/2020 03:01:16 ( 22.69, 152.21)
15 01/24/2020 15:29:32 ( 22.69, 152.46) 01/24/2020 15:33:08 ( 10.01, 149.44)
16 01/25/2020 02:38:37 ( 10.02, 159.98) 01/25/2020 02:42:12 ( 22.65, 156.98)
17 01/25/2020 15:10:30 ( 22.68, 157.21) 01/25/2020 15:14:05 ( 10.06, 154.21)
18 01/26/2020 02:19:35 ( 10.04, 164.74) 01/26/2020 02:23:10 ( 22.66, 161.74)
19 01/26/2020 14:51:27 ( 22.66, 161.97) 01/26/2020 14:55:02 ( 10.04, 158.97)
20 01/27/2020 03:42:01 ( 10.00, 144.13) 01/27/2020 03:45:37 ( 22.69, 141.12)
21 01/27/2020 14:33:44 ( 18.01, 165.59) 01/27/2020 14:36:00 ( 10.03, 163.73)
22 01/27/2020 16:13:54 ( 22.70, 141.37) 01/27/2020 16:16:05 ( 15.01, 139.51)
23 01/28/2020 03:22:59 ( 10.02, 148.89) 01/28/2020 03:26:34 ( 22.64, 145.89)
24 01/28/2020 15:54:51 ( 22.68, 146.12) 01/28/2020 15:58:27 ( 10.00, 143.11)
25 01/29/2020 03:03:56 ( 10.04, 153.65) 01/29/2020 03:07:31 ( 22.66, 150.65)
26 01/29/2020 15:35:49 ( 22.66, 150.88) 01/29/2020 15:39:24 ( 10.05, 147.88)
27 01/30/2020 02:44:54 ( 10.05, 158.41) 01/30/2020 02:48:29 ( 22.68, 155.40)
28 01/30/2020 15:16:47 ( 22.65, 155.64) 01/30/2020 15:20:22 ( 10.03, 152.64)
29 01/31/2020 02:25:50 ( 10.01, 163.18) 01/31/2020 02:29:26 ( 22.69, 160.16)
30 01/31/2020 14:57:43 ( 22.69, 160.41) 01/31/2020 15:01:19 ( 10.01, 157.39)
31 02/01/2020 02:09:37 ( 19.96, 165.60) 02/01/2020 02:10:23 ( 22.65, 164.93)


NCC Satellite Cal/Val Overpasses Prediction Service
